Content
SEND FEEDBACK

Daily
Averages
Monthly
Summary
United States of America

GRANVILLE, WEST VIRGINIA


Home > North America > United States > West Virginia
Elevation: 268 meters     Latitude: 39 37N     Longitude: 079 58W

WEATHER
 
SELECT A DAY
Number of Records: 214,006;   Date Range: 1/1/95 - 9/22/14
 
SHARE

PRINT THIS DATA

[ ← Previous Day ]
WEATHER ALMANAC - 13 FEBRUARY, 2013
[ Next Day → ]
[ °F ]   °C
Weather ElementAverageHighLow
Temperature1 °C6.1 °C (10:53 am)-2.8 °C (5:53 am)
Dewpoint-1.6 °C0.6 °C (5:53 pm)-5.6 °C (1:53 am)
Humidity84.1 %100 % (5:53 pm)53 % (10:53 am)
Barometer1008.5 hPa1012.9 hPa (1:53 am)1004.7 hPa (2:53 pm)
Wind Speed5 km/h22.2 km/h (4:53 pm)
Wind Gust29.6 km/h (3:53 pm)
Weather ElementAverage
Visibility9.7 km
Wind DirectionESE (127.6 °)

Weather ElementTotal
Precipitation0.25 mm
Heating Degree Days16.7 (Base 18.3)
Averaged from 42 records on 13 February, 2013
WEATHER CONDITIONS BREAKOUT
WIND DIRECTION BREAKOUT
WEATHER BY HOUR - 13 FEBRUARY, 2013
[ °F ]   °C
Local TimeTemperatureDewpointHumidityBarometerVisibilityWind DirectionWind SpeedGust SpeedPrecipitationEventsConditions
1:53 AM-1.7 °C-5.6 °C75 %1012.9 hPa16.1 kmCalmClear
2:53 AM-1.7 °C-5.6 °C75 %1012.2 hPa16.1 kmCalmClear
3:53 AM-2.2 °C-5.6 °C78 %1011.5 hPa16.1 kmCalmClear
4:53 AM-2.2 °C-5.6 °C78 %1011.9 hPa16.1 kmCalmClear
5:53 AM-2.8 °C-4.4 °C89 %1011.2 hPa16.1 kmCalmOvercast
6:53 AM-1.1 °C-5 °C75 %1009.8 hPa16.1 kmCalmPartly Cloudy
7:53 AM-0.6 °C-4.4 °C76 %1009.8 hPa16.1 kmCalmOvercast
8:53 AM1.1 °C-2.2 °C79 %1008.5 hPa16.1 kmCalmOvercast
9:53 AM2.8 °C-2.8 °C67 %1008.5 hPa16.1 kmCalmOvercast
10:53 AM6.1 °C-2.8 °C53 %1006.8 hPa16.1 kmNNE (20°)11.1 km/hMostly Cloudy
11:53 AM4.4 °C-3.3 °C58 %1007.1 hPa16.1 kmNorth (10°)9.3 km/hOvercast
12:53 PM5 °C-2.8 °C57 %1005.8 hPa16.1 kmNorth (10°)7.4 km/hOvercast
1:53 PM4.4 °C-3.3 °C58 %1005.4 hPa16.1 kmNorth (360°)9.3 km/hOvercast
2:53 PM5 °C-2.2 °C60 %1004.7 hPa16.1 kmNorth (350°)13 km/hOvercast
3:53 PM3.9 °C-1.7 °C67 %1005.1 hPa14.5 kmNNW (340°)14.8 km/h29.6 km/h0 mm
4:28 PM2 °C0 °C87 %1004.7 hPa9.7 kmNNW (330°)11.1 km/h0 mmSnowLight Snow
4:43 PM2 °C0 °C87 %1005.1 hPa4.8 kmNNW (340°)14.8 km/h0 mmSnowLight Snow
4:53 PM1.1 °C0 °C92 %1006.4 hPa2.9 kmNNW (330°)22.2 km/h0.25 mmSnowLight Snow
5:03 PM1 °C0 °C93 %1005.4 hPa1.3 kmNNW (340°)9.3 km/h0 mmSnowLight Snow
5:53 PM0.6 °C0.6 °C100 %1007.1 hPa1.3 kmNorth (360°)9.3 km/h0 mmSnowLight Snow
6:17 PM1 °C0 °C93 %1006.1 hPa1.6 kmCalm0 mmSnowLight Snow
6:49 PM1 °C0 °C93 %1006.8 hPa1.3 kmCalm0 mmSnowLight Snow
6:53 PM0.6 °C0 °C96 %1008.1 hPa1.3 kmCalm0 mmSnowLight Snow
7:16 PM1 °C0 °C93 %1007.5 hPa1.9 kmCalm0 mmSnowLight Snow
7:33 PM1 °C0 °C93 %1007.5 hPa3.2 kmCalm0 mmOvercast
7:49 PM0 °C0 °C100 %1007.8 hPa1.3 kmCalm0 mmSnowLight Snow
7:53 PM0 °C0 °C100 %1008.8 hPa0.8 kmCalm0 mmFog-SnowLight Snow
8:07 PM1 °C0 °C93 %1008.1 hPa2.4 kmCalm0 mmSnowLight Snow
8:24 PM1 °C0 °C93 %1008.1 hPa4 kmCalm0 mmOvercast
8:33 PM1 °C0 °C93 %1008.1 hPa6.4 kmCalm0 mmOvercast
8:53 PM0.6 °C0 °C96 %1009.8 hPa4.8 kmCalm0 mmOvercast
9:03 PM1 °C0 °C93 %1008.8 hPa3.2 kmCalm0 mmSnowLight Snow
9:05 PM1 °C0 °C93 %1008.8 hPa2.9 kmCalm0 mmSnowLight Snow
9:16 PM1 °C0 °C93 %1009.1 hPa4.8 kmWest (280°)5.6 km/h0 mmSnowLight Snow
9:53 PM0.6 °C-0.6 °C92 %1010.5 hPa8 kmWNW (300°)7.4 km/h0 mmSnowLight Snow
10:10 PM1 °C-1 °C87 %1009.8 hPa4.8 kmWest (280°)7.4 km/h0 mmSnowLight Snow
10:40 PM1 °C-1 °C87 %1010.2 hPa14.5 kmWNW (290°)7.4 km/h0 mmSnowLight Snow
10:53 PM0.6 °C-1.1 °C89 %1010.8 hPa14.5 kmWNW (290°)9.3 km/h0 mmSnowLight Snow
11:15 PM0 °C-1 °C93 %1010.5 hPa16.1 kmWest (260°)9.3 km/h0 mmOvercast
11:25 PM0 °C-2 °C87 %1010.5 hPa16.1 kmWNW (300°)11.1 km/h0 mmOvercast
11:51 PM0 °C-2 °C87 %1010.8 hPa14.5 kmWest (280°)11.1 km/h0 mmOvercast
11:53 PM0 °C-2.2 °C85 %1011.9 hPa14.5 kmWNW (290°)9.3 km/h0 mmOvercast
Hourly data recorded from KMGW, located 0 kilometers away from Granville, West Virginia







STORIES FROM OUR PARTNERS